[[{"header":{"parameterUnit":"m.s-1","parameterCategory":1,"la1":30.2991,"la2":30.254,"lo1":-89.0895,"lo2":-89.0444,"dy":0.0017,"dx":0.0017,"nx":28,"ny":28,"refTime":"2024-05-11T03:00:00:Z","depth":0,"parameterNumber":2,"parameterNumberName":"U-component_of_WINDS"},"data":[0,0,0,0,0,0,0,0,0,0,0,0,0,0,0,0,0,0,0,0,0,0,0,0,0,0,0,0,0,0,0,0,0,0,0,0,0,0,0,0,0,0,0,0,0,0,0,0,0,0,0,0,0,0,0,0,0,0,0.1821,0.1821,0,0.181,0.181,0.181,0.1826,0.1826,0.1827,0.1827,0.1813,0.1812,0.1811,0,0,0,0,0,0,0,0,0,0,0,0,0,0.1855,0.1854,0.1821,0.1821,0.1821,0.181,0.181,0.181,0.1825,0.1826,0.1827,0.1827,0.1813,0.1812,0.1811,0,0,0,0,0,0,0,0,0,0,0,0,0,0.1841,0.1854,0.1821,0.1828,0.1828,0.181,0.181,0.181,0.1825,0.1826,0.1827,0.1828,0.1813,0.1812,0.1811,0.1785,0,0,0.1806,0.1806,0,0,0,0,0,0,0,0,0.1842,0.184,0.1827,0.1827,0.1828,0.182,0.1816,0.1801,0.1825,0.1826,0.1827,0.1828,0.1814,0.1813,0.1809,0.1784,0.1784,0.1806,0.1805,0.1805,0.1804,0,0,0,0,0,0,0,0.1843,0.1841,0.1817,0.1827,0.1827,0.183,0.1829,0.1814,0.1815,0.1826,0.1827,0.1826,0.1815,0.181,0.1808,0.1783,0.1806,0.1805,0.1804,0.1804,0.1738,0.1737,0,0,0,0,0,0,0.1843,0.1841,0.1817,0.1816,0.1837,0.1829,0.1828,0.1822,0.1816,0.1816,0.1825,0.1827,0.1812,0.181,0.1808,0.1778,0.1805,0.1803,0.1803,0.1739,0.1738,0.1737,0,0,0,0,0,0,0.1844,0.1841,0.1818,0.1829,0.1826,0.1828,0.182,0.1821,0.1816,0.1815,0.1815,0.182,0.1813,0.181,0.1791,0.1777,0.1803,0.1802,0.174,0.1739,0.1737,0.1717,0,0,0,0,0,0,0.1845,0.1841,0.1832,0.1829,0.1826,0.1801,0.1819,0.182,0.1814,0.1816,0.181,0.181,0.1813,0.1793,0.179,0.1776,0.1801,0.1741,0.1739,0.1738,0.1719,0.1715,0.1712,0,0,0,0,0,0.1846,0.1826,0.1831,0.1828,0.1814,0.18,0.1798,0.1803,0.1813,0.1803,0.1803,0.181,0.178,0.1791,0.1787,0.1773,0.1742,0.174,0.1738,0.172,0.1716,0.1712,0,0,0,0,0,0,0.1825,0.1825,0.1831,0.181,0.1805,0.1803,0.1791,0.1798,0.1789,0.1791,0.1796,0.1795,0.1775,0.1772,0.1784,0.1748,0.1763,0.176,0.175,0.1746,0.1743,0.1743,0.1799,0,0,0,0,0,0.1819,0.1808,0.1808,0.1789,0.1787,0.1789,0.1783,0.1787,0.1782,0.178,0.1778,0.1772,0.1761,0.1754,0.1744,0.1719,0.1718,0.1708,0.1704,0.1701,0.1698,0.1685,0.1681,0.173,0.173,0.173,0,0,0.1804,0.1802,0.1795,0.1785,0.1782,0.177,0.1787,0.1774,0.1765,0.1778,0.176,0.1758,0.1752,0.173,0.1721,0.1728,0.1685,0.1699,0.1696,0.1695,0.1683,0.1678,0.1674,0.1729,0.1729,0.1729,0,0,0.1771,0.1769,0.1753,0.175,0.1746,0.1748,0.1744,0.1741,0.1741,0.1724,0.1733,0.1723,0.1704,0.1699,0.1694,0.1662,0.1668,0.1658,0.1639,0.1626,0.1623,0.1619,0.1607,0.1603,0.1655,0.1655,0.1655,0,0.1752,0.1736,0.1743,0.173,0.1725,0.1738,0.1721,0.1718,0.171,0.1706,0.1714,0.1692,0.1688,0.1666,0.1658,0.1654,0.1649,0.1658,0.1623,0.1619,0.1616,0.1605,0.16,0.1654,0.1654,0.1654,0.1655,0,0.1713,0.1702,0.169,0.1683,0.1677,0.1662,0.1667,0.166,0.1665,0.1666,0.1648,0.1645,0.1635,0.163,0.1635,0.1609,0.1613,0.1622,0.1636,0.161,0.1599,0.1595,0.1652,0.1653,0.1653,0.1653,0,0,0.1665,0.1664,0.1659,0.1657,0.1654,0.1645,0.1631,0.1622,0.1616,0.1611,0.1598,0.1583,0.1592,0.1587,0.1591,0.158,0.1554,0.159,0.159,0.1583,0.1525,0.1517,0.1512,0.1559,0.1558,0.1558,0.1525,0,0.1631,0.1608,0.1615,0.1591,0.158,0.1593,0.1581,0.1577,0.1579,0.1569,0.1571,0.156,0.1572,0.1569,0.1559,0.1559,0.1542,0.1562,0.1547,0.1546,0.1547,0.1506,0.1498,0.1467,0.1521,0.152,0.152,0,0.1588,0.1583,0.1558,0.1558,0.1554,0.1543,0.1536,0.1527,0.1524,0.1526,0.1521,0.1528,0.1513,0.1529,0.1509,0.1523,0.1517,0.1517,0.1516,0.1513,0.153,0.1501,0.1457,0.1452,0.1513,0.1514,0.1514,0,0.1554,0.1541,0.1524,0.1522,0.1522,0.1514,0.1513,0.1511,0.1505,0.1499,0.1496,0.1488,0.1483,0.1477,0.1481,0.1492,0.146,0.1477,0.1461,0.146,0.1452,0.1452,0.1404,0.145,0.1451,0.1451,0.1451,0,0.1515,0.1499,0.1509,0.1499,0.1482,0.149,0.1473,0.1474,0.1472,0.1461,0.1472,0.1462,0.147,0.146,0.1464,0.1447,0.1445,0.1445,0.1446,0.1443,0.1443,0.1438,0.144,0.1449,0.145,0.145,0.145,0,0.1473,0.1479,0.1462,0.1464,0.1464,0.1452,0.1453,0.1443,0.1446,0.1433,0.1431,0.1435,0.1425,0.1429,0.1418,0.142,0.1398,0.1402,0.1399,0.14,0.1383,0.1384,0.133,0.1323,0.1375,0.1374,0.1374,0,0.1447,0.1435,0.1437,0.1431,0.143,0.1421,0.1416,0.1425,0.1419,0.1416,0.1406,0.1397,0.139,0.1373,0.1375,0.1366,0.137,0.1352,0.1368,0.1366,0.1368,0.1368,0.1367,0.1347,0.1347,0.1346,0.1346,0,0.14,0.1404,0.1397,0.1391,0.1386,0.1381,0.1378,0.1373,0.1381,0.1375,0.1365,0.136,0.1349,0.134,0.1333,0.1332,0.134,0.1341,0.1337,0.1333,0.1331,0.1331,0.1389,0.1342,0.1342,0.1342,0.1343,0.1343,0.1364,0.1355,0.1354,0.1346,0.1345,0.1342,0.1334,0.1336,0.1329,0.1322,0.1327,0.1316,0.1314,0.1306,0.1303,0.1294,0.1301,0.1295,0.1293,0.1291,0.1289,0.1334,0.1293,0.1293,0.1293,0.1293,0.1293,0,0.1317,0.1318,0.1311,0.1306,0.13,0.1311,0.1308,0.1302,0.1292,0.129,0.1284,0.1273,0.1264,0.1266,0.1258,0.125,0.1254,0.1248,0.1248,0.1247,0.1283,0.1287,0.1245,0.1245,0.1245,0.1245,0.1245,0.1245,0.1291,0.1275,0.128,0.1264,0.1265,0.1255,0.1252,0.1249,0.1248,0.1236,0.1229,0.1231,0.1231,0.1223,0.1216,0.1217,0.1213,0.1205,0.1207,0.124,0.1245,0.1249,0.1253,0.1204,0.1204,0.1172,0.1171,0.1171]},{"header":{"parameterUnit":"m.s-1","parameterCategory":1,"la1":30.2991,"la2":30.254,"lo1":-89.0895,"lo2":-89.0444,"dy":0.0017,"dx":0.0017,"nx":28,"ny":28,"refTime":"2024-05-11T03:00:00:Z","depth":0,"parameterNumber":3,"parameterNumberName":"V-component_of_WINDS"},"data":[0,0,0,0,0,0,0,0,0,0,0,0,0,0,0,0,0,0,0,0,0,0,0,0,0,0,0,0,0,0,0,0,0,0,0,0,0,0,0,0,0,0,0,0,0,0,0,0,0,0,0,0,0,0,0,0,0,0,-5.7525,-5.7526,0,-5.7582,-5.7582,-5.7583,-5.7492,-5.7489,-5.7486,-5.7483,-5.7537,-5.7542,-5.7546,0,0,0,0,0,0,0,0,0,0,0,0,0,-5.7335,-5.7339,-5.7525,-5.7526,-5.7527,-5.7582,-5.7582,-5.7583,-5.7493,-5.7489,-5.7485,-5.7482,-5.7536,-5.7541,-5.7546,0,0,0,0,0,0,0,0,0,0,0,0,0,-5.7407,-5.734,-5.7525,-5.7488,-5.7485,-5.7581,-5.7582,-5.7583,-5.7494,-5.7489,-5.7484,-5.748,-5.7534,-5.754,-5.7547,-5.768,0,0,-5.7567,-5.757,0,0,0,0,0,0,0,0,-5.7403,-5.7414,-5.7493,-5.7491,-5.7488,-5.7525,-5.7535,-5.7616,-5.7495,-5.749,-5.7483,-5.7478,-5.7537,-5.7543,-5.7563,-5.7683,-5.7685,-5.7567,-5.7571,-5.7574,-5.7576,0,0,0,0,0,0,0,-5.7398,-5.7411,-5.7547,-5.7494,-5.7491,-5.7467,-5.7473,-5.755,-5.7539,-5.749,-5.7484,-5.7492,-5.7535,-5.7557,-5.7564,-5.7686,-5.7567,-5.7573,-5.7577,-5.758,-5.7917,-5.7922,0,0,0,0,0,0,-5.7398,-5.7408,-5.7545,-5.7549,-5.7433,-5.7475,-5.748,-5.7518,-5.7538,-5.7536,-5.7496,-5.7488,-5.7549,-5.7557,-5.7566,-5.7723,-5.7574,-5.758,-5.7584,-5.7912,-5.7918,-5.7923,0,0,0,0,0,0,-5.7394,-5.7411,-5.7543,-5.7477,-5.7492,-5.7483,-5.7526,-5.7521,-5.7544,-5.7542,-5.7539,-5.7522,-5.7545,-5.7556,-5.7653,-5.7724,-5.7583,-5.7589,-5.7906,-5.7914,-5.7921,-5.8039,0,0,0,0,0,0,-5.7389,-5.7411,-5.7462,-5.7478,-5.7496,-5.7631,-5.753,-5.7526,-5.7556,-5.7546,-5.7566,-5.7564,-5.7542,-5.7643,-5.7659,-5.773,-5.7594,-5.7899,-5.7909,-5.7918,-5.8029,-5.805,-5.8068,0,0,0,0,0,-5.7383,-5.7492,-5.7465,-5.7482,-5.756,-5.7635,-5.7645,-5.7618,-5.7562,-5.7613,-5.7612,-5.7564,-5.7713,-5.7654,-5.7671,-5.7745,-5.7895,-5.7906,-5.7917,-5.802,-5.8046,-5.8067,0,0,0,0,0,0,-5.7483,-5.7494,-5.7464,-5.7582,-5.7609,-5.762,-5.7683,-5.7646,-5.7688,-5.7677,-5.7641,-5.7646,-5.775,-5.7756,-5.769,-5.7875,-5.7794,-5.781,-5.7867,-5.7891,-5.791,-5.7906,-5.7599,0,0,0,0,0,-5.7519,-5.7581,-5.7586,-5.769,-5.7705,-5.7692,-5.7724,-5.7702,-5.7727,-5.7737,-5.7743,-5.7768,-5.782,-5.7856,-5.7904,-5.8029,-5.8032,-5.8088,-5.8108,-5.8124,-5.8137,-5.8203,-5.8228,-5.7961,-5.7961,-5.796,0,0,-5.7594,-5.7607,-5.7648,-5.771,-5.7728,-5.7791,-5.7702,-5.7773,-5.7819,-5.7747,-5.7839,-5.7844,-5.787,-5.7981,-5.803,-5.799,-5.8212,-5.8138,-5.8151,-5.8156,-5.8218,-5.8243,-5.8266,-5.7968,-5.7967,-5.7966,0,0,-5.7762,-5.7779,-5.7868,-5.7888,-5.7916,-5.7907,-5.7929,-5.7946,-5.7947,-5.8038,-5.7986,-5.8039,-5.8131,-5.8152,-5.8174,-5.8351,-5.8308,-5.8367,-5.8469,-5.8534,-5.8555,-5.8574,-5.8637,-5.866,-5.8381,-5.8381,-5.8381,0,-5.7851,-5.7946,-5.7917,-5.7992,-5.8021,-5.796,-5.8049,-5.8069,-5.8112,-5.8132,-5.8087,-5.8201,-5.8214,-5.8329,-5.8372,-5.8392,-5.8415,-5.8365,-5.8555,-5.8573,-5.859,-5.8649,-5.8673,-5.8388,-5.8388,-5.8387,-5.8386,0,-5.8054,-5.812,-5.8188,-5.8232,-5.8268,-5.835,-5.8332,-5.8372,-5.8346,-5.8342,-5.8435,-5.8449,-5.8499,-5.8524,-5.85,-5.8636,-5.861,-5.8561,-5.8479,-5.8623,-5.8678,-5.8701,-5.8398,-5.8396,-5.8394,-5.8392,0,0,-5.8287,-5.8315,-5.834,-5.836,-5.8387,-5.8437,-5.8515,-5.8565,-5.86,-5.8631,-5.8695,-5.8774,-5.8729,-5.8754,-5.8731,-5.8788,-5.8927,-5.8731,-5.8731,-5.8767,-5.9078,-5.9116,-5.9143,-5.8899,-5.8903,-5.8906,-5.9076,0,-5.8455,-5.8592,-5.8568,-5.87,-5.8761,-5.8704,-5.8772,-5.8795,-5.8793,-5.8843,-5.8839,-5.8896,-5.8832,-5.8847,-5.8901,-5.8899,-5.8989,-5.8886,-5.8957,-5.896,-5.8953,-5.9171,-5.9211,-5.9371,-5.9097,-5.9101,-5.9104,0,-5.8669,-5.871,-5.8849,-5.8867,-5.8892,-5.8953,-5.8997,-5.9046,-5.9071,-5.9065,-5.9095,-5.9061,-5.9137,-5.9055,-5.9159,-5.909,-5.9117,-5.9121,-5.9126,-5.9132,-5.9041,-5.9183,-5.9421,-5.9445,-5.9137,-5.9135,-5.9132,0,-5.8826,-5.8915,-5.901,-5.9028,-5.9051,-5.9096,-5.9108,-5.9128,-5.916,-5.9198,-5.9218,-5.9264,-5.9289,-5.9325,-5.9304,-5.9246,-5.9412,-5.9328,-5.9409,-5.9409,-5.9446,-5.9444,-5.9692,-5.9464,-5.9464,-5.9463,-5.9463,0,-5.9016,-5.9103,-5.9081,-5.9139,-5.9234,-5.9206,-5.93,-5.9305,-5.9324,-5.9381,-5.9334,-5.9388,-5.9357,-5.9409,-5.9393,-5.9481,-5.9493,-5.949,-5.9484,-5.9494,-5.9495,-5.9512,-5.95,-5.947,-5.9468,-5.9467,-5.9466,0,-5.9207,-5.9195,-5.9295,-5.9309,-5.9315,-5.9385,-5.9396,-5.945,-5.9444,-5.9517,-5.9532,-5.9523,-5.9581,-5.9564,-5.9626,-5.9615,-5.9728,-5.9708,-5.972,-5.9715,-5.9797,-5.9789,-6.0064,-6.0098,-5.9849,-5.9851,-5.9853,0,-5.9329,-5.9395,-5.9417,-5.9453,-5.9468,-5.9526,-5.9558,-5.9532,-5.9568,-5.9601,-5.9651,-5.9705,-5.9748,-5.9843,-5.9841,-5.9888,-5.9869,-5.9962,-5.9876,-5.9884,-5.9871,-5.9867,-5.9873,-5.998,-5.9982,-5.9985,-5.9987,0,-5.9547,-5.9538,-5.9588,-5.9636,-5.9677,-5.9713,-5.9744,-5.9776,-5.9752,-5.9794,-5.9854,-5.9887,-5.9951,-6.0005,-6.0049,-6.0058,-6.0019,-6.0014,-6.0035,-6.0046,-6.005,-6.0049,-5.9767,-6.0008,-6.0006,-6.0004,-6.0003,-6.0002,-5.9707,-5.9763,-5.9788,-5.9844,-5.9866,-5.9896,-5.9948,-5.9949,-5.9999,-6.0051,-6.0031,-6.01,-6.0122,-6.0177,-6.0193,-6.0245,-6.0209,-6.024,-6.0247,-6.0255,-6.0266,-6.0042,-6.0252,-6.0252,-6.0251,-6.0251,-6.025,0,-5.9923,-5.9936,-5.9989,-6.0035,-6.008,-6.004,-6.0072,-6.0112,-6.0173,-6.0199,-6.0241,-6.031,-6.0362,-6.0365,-6.0413,-6.0455,-6.0438,-6.0469,-6.0465,-6.0468,-6.0295,-6.0272,-6.0482,-6.0481,-6.0481,-6.0481,-6.0481,-6.0481,-6.004,-6.0133,-6.0127,-6.023,-6.0241,-6.031,-6.0332,-6.0359,-6.0379,-6.0459,-6.0503,-6.0504,-6.052,-6.057,-6.0616,-6.0615,-6.0635,-6.0673,-6.0665,-6.0503,-6.048,-6.0458,-6.0436,-6.0677,-6.0677,-6.0833,-6.0835,-6.0836]}]]